Location: Nitra
(0.0000°N, 18.0833°E)
Time: 06:05:13
(UTC+01:00)

Meteor 1-27 - Pass Details

Date: 24 January 2021
Orbit: 837 x 893 km, 81.3° (Epoch: 04 March)

Event Time Altitude Azimuth Distance (km) Brightness Sun altitude
Exits shadow 19:30:29 25° 16° (NNE) 1,613 5.3 -21.4°
Maximum altitude 19:33:35 58° 85° (E) 973 4.1 -22.1°
Drops below altitude 10° 19:39:02 10° 163° (SSE) 2,457 6.6 -23.4°
Sets 19:41:29 0° 167° (SSE) 3,399 7.4 -23.9°
